owner,sensor,date,latitude,longitude,vertical_datum,wind_speed,wind_to_direction,wind_speed_of_gust,qcFlag 
TABS,ioos:station:wmo:42046:1,2012-04-01T00:00:00Z,27.8903,-94.0367,4.0,1.691774217,137.6354941,2.36,'11111222,11111222,11111222' 
TABS,ioos:station:wmo:42046:1,2012-04-01T00:30:00Z,27.8903,-94.0367,4.0,1.593267084,111.7350013,1.97,'11111222,11111222,11111222' 
TABS,ioos:station:wmo:42046:1,2012-04-01T01:00:00Z,27.8903,-94.0367,4.0,2.358410482,127.9392382,2.84,'11111222,11111222,11111222' 
TABS,ioos:station:wmo:42046:1,2012-04-01T01:30:00Z,27.8903,-94.0367,4.0,2.74415743,136.1815018,3.29,'11111222,11111222,11111222' 
TABS,ioos:station:wmo:42046:1,2012-04-01T02:00:00Z,27.8903,-94.0367,4.0,3.048442225,145.4240085,3.92,'11111222,11111222,11111222' 
TABS,ioos:station:wmo:42046:1,2012-04-01T02:30:00Z,27.8903,-94.0367,4.0,3.852531635,150.1078249,4.53,'11111222,11111222,11111222' 
TABS,ioos:station:wmo:42046:1,2012-04-01T03:00:00Z,27.8903,-94.0367,4.0,4.124087778,129.9837799,4.68,'11111222,11111222,11111222' 
TABS,ioos:station:wmo:42046:1,2012-04-01T03:30:00Z,27.8903,-94.0367,4.0,4.017561449,144.7278715,4.68,'11111222,11111222,11111222' 
TABS,ioos:station:wmo:42046:1,2012-04-01T04:00:00Z,27.8903,-94.0367,4.0,4.068709869,144.2006946,4.82,'11111222,11111222,11111222' 
TABS,ioos:station:wmo:42046:1,2012-04-01T04:30:00Z,27.8903,-94.0367,4.0,3.614484749,145.2550106,4.34,'11111222,11111222,11111222' 
TABS,ioos:station:wmo:42046:1,2012-04-01T05:00:00Z,27.8903,-94.0367,4.0,4.244773257,149.5689554,4.89,'11111222,11111222,11111222' 
TABS,ioos:station:wmo:42046:1,2012-04-01T05:30:00Z,27.8903,-94.0367,4.0,4.891237062,149.398135,5.74,'11111222,11111222,11111222' 
TABS,ioos:station:wmo:42046:1,2012-04-01T06:00:00Z,27.8903,-94.0367,4.0,5.164000387,149.5122348,6.21,'11111222,11111222,11111222' 
TABS,ioos:station:wmo:42046:1,2012-04-01T06:30:00Z,27.8903,-94.0367,4.0,5.835357744,156.466465,6.83,'11111222,11111222,11111222' 
TABS,ioos:station:wmo:42046:1,2012-04-01T07:00:00Z,27.8903,-94.0367,4.0,5.50407122,158.4694771,6.41,'11111222,11111222,11111222' 
TABS,ioos:station:wmo:42046:1,2012-04-01T07:30:00Z,27.8903,-94.0367,4.0,4.953584561,160.1752617,5.85,'11111222,11111222,11111222' 
TABS,ioos:station:wmo:42046:1,2012-04-01T08:00:00Z,27.8903,-94.0367,4.0,4.999569982,161.4565845,5.76,'11111222,11111222,11111222' 
TABS,ioos:station:wmo:42046:1,2012-04-01T08:30:00Z,27.8903,-94.0367,4.0,5.308125846,160.0632601,6.69,'11111222,11111222,11111222' 
TABS,ioos:station:wmo:42046:1,2012-04-01T09:00:00Z,27.8903,-94.0367,4.0,5.549099026,158.9849878,6.39,'11111222,11111222,11111222' 
TABS,ioos:station:wmo:42046:1,2012-04-01T09:30:00Z,27.8903,-94.0367,4.0,5.625948809,161.0178082,6.89,'11111222,11111222,11111222' 
TABS,ioos:station:wmo:42046:1,2012-04-01T10:00:00Z,27.8903,-94.0367,4.0,5.373760322,164.5674526,6.4,'11111222,11111222,11111222' 
TABS,ioos:station:wmo:42046:1,2012-04-01T10:30:00Z,27.8903,-94.0367,4.0,4.426657882,168.0049218,5.02,'11111222,11111222,11111222' 
TABS,ioos:station:wmo:42046:1,2012-04-01T11:00:00Z,27.8903,-94.0367,4.0,3.827858409,156.1137664,4.43,'11111222,11111222,11111222' 
TABS,ioos:station:wmo:42046:1,2012-04-01T11:30:00Z,27.8903,-94.0367,4.0,4.313420916,161.9013457,4.94,'11111222,11111222,11111222' 
TABS,ioos:station:wmo:42046:1,2012-04-01T12:00:00Z,27.8903,-94.0367,4.0,4.881936091,158.1116772,5.82,'11111222,11111222,11111222' 
TABS,ioos:station:wmo:42046:1,2012-04-01T12:30:00Z,27.8903,-94.0367,4.0,4.75045261,160.5736017,5.37,'11111222,11111222,11111222' 
TABS,ioos:station:wmo:42046:1,2012-04-01T13:00:00Z,27.8903,-94.0367,4.0,3.927034505,154.348742,4.51,'11111222,11111222,11111222' 
TABS,ioos:station:wmo:42046:1,2012-04-01T13:30:00Z,27.8903,-94.0367,4.0,4.221326806,146.0090647,4.98,'11111222,11111222,11111222' 
TABS,ioos:station:wmo:42046:1,2012-04-01T14:00:00Z,27.8903,-94.0367,4.0,3.9383753,146.3909198,4.72,'11111222,11111222,11111222' 
TABS,ioos:station:wmo:42046:1,2012-04-01T14:30:00Z,27.8903,-94.0367,4.0,3.618798143,144.333779,4.38,'11111222,11111222,11111222' 
TABS,ioos:station:wmo:42046:1,2012-04-01T15:00:00Z,27.8903,-94.0367,4.0,3.754490645,138.455481,4.29,'11111222,11111222,11111222' 
TABS,ioos:station:wmo:42046:1,2012-04-01T15:30:00Z,27.8903,-94.0367,4.0,3.390648905,129.1351724,3.9,'11111222,11111222,11111222' 
TABS,ioos:station:wmo:42046:1,2012-04-01T16:00:00Z,27.8903,-94.0367,4.0,3.586600061,133.3056726,4.12,'11111222,11111222,11111222' 
TABS,ioos:station:wmo:42046:1,2012-04-01T16:30:00Z,27.8903,-94.0367,4.0,4.868695924,145.0371947,5.5,'11111222,11111222,11111222' 
TABS,ioos:station:wmo:42046:1,2012-04-01T17:00:00Z,27.8903,-94.0367,4.0,5.412439376,152.2515955,6.24,'11111222,11111222,11111222' 
TABS,ioos:station:wmo:42046:1,2012-04-01T17:30:00Z,27.8903,-94.0367,4.0,4.573849582,151.249853,5.45,'11111222,11111222,11111222' 
TABS,ioos:station:wmo:42046:1,2012-04-01T18:00:00Z,27.8903,-94.0367,4.0,4.720010593,151.8064003,5.48,'11111222,11111222,11111222' 
TABS,ioos:station:wmo:42046:1,2012-04-01T18:30:00Z,27.8903,-94.0367,4.0,4.166017283,143.2954364,4.94,'11111222,11111222,11111222' 
TABS,ioos:station:wmo:42046:1,2012-04-01T19:00:00Z,27.8903,-94.0367,4.0,4.327701468,134.4386117,5.22,'11111222,11111222,11111222' 
TABS,ioos:station:wmo:42046:1,2012-04-01T19:30:00Z,27.8903,-94.0367,4.0,4.032988966,132.9907666,4.6,'11111222,11111222,11111222' 
TABS,ioos:station:wmo:42046:1,2012-04-01T20:00:00Z,27.8903,-94.0367,4.0,3.629325006,120.0976963,4.27,'11111222,11111222,11111222' 
TABS,ioos:station:wmo:42046:1,2012-04-01T20:30:00Z,27.8903,-94.0367,4.0,3.780013227,117.9212668,4.59,'11111222,11111222,11111222' 
TABS,ioos:station:wmo:42046:1,2012-04-01T21:00:00Z,27.8903,-94.0367,4.0,4.658336613,126.1814385,5.43,'11111222,11111222,11111222' 
TABS,ioos:station:wmo:42046:1,2012-04-01T21:30:00Z,27.8903,-94.0367,4.0,5.364895153,125.8235603,6.1,'11111222,11111222,11111222' 
TABS,ioos:station:wmo:42046:1,2012-04-01T22:00:00Z,27.8903,-94.0367,4.0,4.71009554,127.2351678,5.45,'11111222,11111222,11111222' 
TABS,ioos:station:wmo:42046:1,2012-04-01T22:30:00Z,27.8903,-94.0367,4.0,5.169023119,121.2302408,6.15,'11111222,11111222,11111222' 
TABS,ioos:station:wmo:42046:1,2012-04-01T23:00:00Z,27.8903,-94.0367,4.0,5.220737496,122.564126,6.24,'11111222,11111222,11111222' 
TABS,ioos:station:wmo:42046:1,2012-04-01T23:30:00Z,27.8903,-94.0367,4.0,5.667892024,122.316475,6.56,'11111222,11111222,11111222' 
TABS,ioos:station:wmo:42046:1,2012-04-02T00:00:00Z,27.8903,-94.0367,4.0,6.573431372,123.2069136,7.42,'11111222,11111222,11111222' 
TABS,ioos:station:wmo:42046:1,2012-04-02T00:30:00Z,27.8903,-94.0367,4.0,6.354439393,124.290604,7.32,'11111222,11111222,11111222' 
TABS,ioos:station:wmo:42046:1,2012-04-02T01:00:00Z,27.8903,-94.0367,4.0,6.439914596,121.3455618,7.48,'11111222,11111222,11111222' 
TABS,ioos:station:wmo:42046:1,2012-04-02T01:30:00Z,27.8903,-94.0367,4.0,6.663632643,124.9782714,7.85,'11111222,11111222,11111222' 
TABS,ioos:station:wmo:42046:1,2012-04-02T02:00:00Z,27.8903,-94.0367,4.0,6.693549133,125.6375217,8.04,'11111222,11111222,11111222' 
TABS,ioos:station:wmo:42046:1,2012-04-02T02:30:00Z,27.8903,-94.0367,4.0,5.220900306,128.7801115,5.96,'11111222,11111222,11111222' 
TABS,ioos:station:wmo:42046:1,2012-04-02T03:00:00Z,27.8903,-94.0367,4.0,4.953160607,137.1274618,5.73,'11111222,11111222,11111222' 
TABS,ioos:station:wmo:42046:1,2012-04-02T03:30:00Z,27.8903,-94.0367,4.0,5.197278134,134.7664572,5.89,'11111222,11111222,11111222' 
TABS,ioos:station:wmo:42046:1,2012-04-02T04:00:00Z,27.8903,-94.0367,4.0,5.589508028,141.1003614,6.4,'11111222,11111222,11111222' 
TABS,ioos:station:wmo:42046:1,2012-04-02T04:30:00Z,27.8903,-94.0367,4.0,5.332785389,136.215956,6.35,'11111222,11111222,11111222' 
TABS,ioos:station:wmo:42046:1,2012-04-02T05:00:00Z,27.8903,-94.0367,4.0,5.744188367,146.8635183,6.6,'11111222,11111222,11111222' 
TABS,ioos:station:wmo:42046:1,2012-04-02T05:30:00Z,27.8903,-94.0367,4.0,5.813406918,146.7202503,6.7,'11111222,11111222,11111222' 
TABS,ioos:station:wmo:42046:1,2012-04-02T06:00:00Z,27.8903,-94.0367,4.0,7.450543604,161.1275706,9.24,'11111222,11111222,11111222' 
TABS,ioos:station:wmo:42046:1,2012-04-02T06:30:00Z,27.8903,-94.0367,4.0,6.616078899,169.7263713,7.83,'11111222,11111222,11111222' 
TABS,ioos:station:wmo:42046:1,2012-04-02T07:00:00Z,27.8903,-94.0367,4.0,5.310084745,179.6765097,6.1,'11111222,11111222,11111222' 
TABS,ioos:station:wmo:42046:1,2012-04-02T07:30:00Z,27.8903,-94.0367,4.0,3.875590278,169.444151,4.82,'11111222,11111222,11111222' 
TABS,ioos:station:wmo:42046:1,2012-04-02T08:00:00Z,27.8903,-94.0367,4.0,3.131980204,164.6328146,3.64,'11111222,11111222,11111222' 
TABS,ioos:station:wmo:42046:1,2012-04-02T08:30:00Z,27.8903,-94.0367,4.0,4.013190751,137.5249435,4.63,'11111222,11111222,11111222' 
TABS,ioos:station:wmo:42046:1,2012-04-02T09:00:00Z,27.8903,-94.0367,4.0,4.94792886,146.3744545,5.72,'11111222,11111222,11111222' 
TABS,ioos:station:wmo:42046:1,2012-04-02T09:30:00Z,27.8903,-94.0367,4.0,4.644911194,141.9954916,5.35,'11111222,11111222,11111222' 
TABS,ioos:station:wmo:42046:1,2012-04-02T10:00:00Z,27.8903,-94.0367,4.0,5.553170266,144.3066933,6.35,'11111222,11111222,11111222' 
TABS,ioos:station:wmo:42046:1,2012-04-02T10:30:00Z,27.8903,-94.0367,4.0,5.470063985,147.2398869,6.43,'11111222,11111222,11111222' 
TABS,ioos:station:wmo:42046:1,2012-04-02T11:00:00Z,27.8903,-94.0367,4.0,5.07168611,154.0415019,5.73,'11111222,11111222,11111222' 
TABS,ioos:station:wmo:42046:1,2012-04-02T11:30:00Z,27.8903,-94.0367,4.0,5.560035971,149.2839458,6.32,'11111222,11111222,11111222' 
TABS,ioos:station:wmo:42046:1,2012-04-02T12:00:00Z,27.8903,-94.0367,4.0,5.880034014,157.185516,6.66,'11111222,11111222,11111222' 
TABS,ioos:station:wmo:42046:1,2012-04-02T12:30:00Z,27.8903,-94.0367,4.0,6.482136993,145.6237855,7.43,'11111222,11111222,11111222' 
TABS,ioos:station:wmo:42046:1,2012-04-02T13:00:00Z,27.8903,-94.0367,4.0,6.194513702,140.5026432,7.6,'11111222,11111222,11111222' 
TABS,ioos:station:wmo:42046:1,2012-04-02T13:30:00Z,27.8903,-94.0367,4.0,3.761076973,149.4806697,4.42,'11111222,11111222,11111222' 
TABS,ioos:station:wmo:42046:1,2012-04-02T14:00:00Z,27.8903,-94.0367,4.0,4.243500913,146.0480866,5.0,'11111222,11111222,11111222' 
TABS,ioos:station:wmo:42046:1,2012-04-02T14:30:00Z,27.8903,-94.0367,4.0,2.060218435,299.6758224,7.41,'11111222,11111222,11111222' 
TABS,ioos:station:wmo:42046:1,2012-04-02T15:00:00Z,27.8903,-94.0367,4.0,7.821489628,338.1576222,9.75,'11111222,11111222,11111222' 
TABS,ioos:station:wmo:42046:1,2012-04-02T15:30:00Z,27.8903,-94.0367,4.0,5.412698033,16.86121874,6.66,'11111222,11111222,11111222' 
TABS,ioos:station:wmo:42046:1,2012-04-02T16:00:00Z,27.8903,-94.0367,4.0,7.347884049,34.57650305,8.76,'11111222,11111222,11111222' 
TABS,ioos:station:wmo:42046:1,2012-04-02T16:30:00Z,27.8903,-94.0367,4.0,6.669370285,46.15394729,7.62,'11111222,11111222,11111222' 
TABS,ioos:station:wmo:42046:1,2012-04-02T17:00:00Z,27.8903,-94.0367,4.0,5.841515214,64.44352083,6.71,'11111222,11111222,11111222' 
TABS,ioos:station:wmo:42046:1,2012-04-02T17:30:00Z,27.8903,-94.0367,4.0,5.800862005,90.98817901,7.73,'11111222,11111222,11111222' 
TABS,ioos:station:wmo:42046:1,2012-04-02T18:00:00Z,27.8903,-94.0367,4.0,4.920497942,89.18445213,5.77,'11111222,11111222,11111222' 
TABS,ioos:station:wmo:42046:1,2012-04-02T18:30:00Z,27.8903,-94.0367,4.0,6.322800013,106.2569629,7.41,'11111222,11111222,11111222' 
TABS,ioos:station:wmo:42046:1,2012-04-02T19:00:00Z,27.8903,-94.0367,4.0,7.12002809,112.4592906,7.95,'11111222,11111222,11111222' 
TABS,ioos:station:wmo:42046:1,2012-04-02T19:30:00Z,27.8903,-94.0367,4.0,6.58775379,112.8677722,7.72,'11111222,11111222,11111222' 
TABS,ioos:station:wmo:42046:1,2012-04-02T20:00:00Z,27.8903,-94.0367,4.0,6.056277735,127.4189519,7.05,'11111222,11111222,11111222' 
TABS,ioos:station:wmo:42046:1,2012-04-02T20:30:00Z,27.8903,-94.0367,4.0,6.328641244,135.1923674,7.3,'11111222,11111222,11111222' 
TABS,ioos:station:wmo:42046:1,2012-04-02T21:00:00Z,27.8903,-94.0367,4.0,6.669370285,133.8460527,7.88,'11111222,11111222,11111222' 
TABS,ioos:station:wmo:42046:1,2012-04-02T21:30:00Z,27.8903,-94.0367,4.0,6.813075664,138.2131238,8.29,'11111222,11111222,11111222' 
TABS,ioos:station:wmo:42046:1,2012-04-02T22:00:00Z,27.8903,-94.0367,4.0,7.097393888,146.3773913,8.35,'11111222,11111222,11111222' 
TABS,ioos:station:wmo:42046:1,2012-04-02T22:30:00Z,27.8903,-94.0367,4.0,6.953473952,149.9692295,8.23,'11111222,11111222,11111222' 
TABS,ioos:station:wmo:42046:1,2012-04-02T23:00:00Z,27.8903,-94.0367,4.0,6.935027037,150.7370356,7.99,'11111222,11111222,11111222' 
TABS,ioos:station:wmo:42046:1,2012-04-02T23:30:00Z,27.8903,-94.0367,4.0,7.368161236,148.3163676,8.53,'11111222,11111222,11111222' 
TABS,ioos:station:wmo:42046:1,2012-04-03T00:00:00Z,27.8903,-94.0367,4.0,7.357778197,150.4389141,8.47,'11111222,11111222,11111222' 
TABS,ioos:station:wmo:42046:1,2012-04-03T00:30:00Z,27.8903,-94.0367,4.0,7.056344663,147.0308837,8.05,'11111222,11111222,11111222' 
TABS,ioos:station:wmo:42046:1,2012-04-03T01:00:00Z,27.8903,-94.0367,4.0,7.499873332,148.5779613,8.95,'11111222,11111222,11111222' 
TABS,ioos:station:wmo:42046:1,2012-04-03T01:30:00Z,27.8903,-94.0367,4.0,8.020897705,151.0705617,9.25,'11111222,11111222,11111222' 
TABS,ioos:station:wmo:42046:1,2012-04-03T02:00:00Z,27.8903,-94.0367,4.0,7.548330941,148.2684644,8.88,'11111222,11111222,11111222' 
TABS,ioos:station:wmo:42046:1,2012-04-03T02:30:00Z,27.8903,-94.0367,4.0,8.326830129,149.7091735,9.79,'11111222,11111222,11111222' 
TABS,ioos:station:wmo:42046:1,2012-04-03T03:00:00Z,27.8903,-94.0367,4.0,8.552923477,149.5075647,10.18,'11111222,11111222,11111222' 
TABS,ioos:station:wmo:42046:1,2012-04-03T03:30:00Z,27.8903,-94.0367,4.0,7.180341218,140.368417,8.41,'11111222,11111222,11111222' 
TABS,ioos:station:wmo:42046:1,2012-04-03T04:00:00Z,27.8903,-94.0367,4.0,8.060130272,141.296086,9.98,'11111222,11111222,11111222' 
TABS,ioos:station:wmo:42046:1,2012-04-03T04:30:00Z,27.8903,-94.0367,4.0,8.43452429,138.9421879,10.05,'11111222,11111222,11111222' 
TABS,ioos:station:wmo:42046:1,2012-04-03T05:00:00Z,27.8903,-94.0367,4.0,8.373493894,138.4860987,10.27,'11111222,11111222,11111222' 
TABS,ioos:station:wmo:42046:1,2012-04-03T05:30:00Z,27.8903,-94.0367,4.0,7.96962358,135.6611944,9.28,'11111222,11111222,11111222' 
TABS,ioos:station:wmo:42046:1,2012-04-03T06:00:00Z,27.8903,-94.0367,4.0,9.690779122,157.2985345,12.02,'11111222,11111222,11111222' 
TABS,ioos:station:wmo:42046:1,2012-04-03T06:30:00Z,27.8903,-94.0367,4.0,8.898769578,144.5599172,10.7,'11111222,11111222,11111222' 
TABS,ioos:station:wmo:42046:1,2012-04-03T07:00:00Z,27.8903,-94.0367,4.0,9.257326828,150.9156168,10.63,'11111222,11111222,11111222' 
TABS,ioos:station:wmo:42046:1,2012-04-03T07:30:00Z,27.8903,-94.0367,4.0,10.07625426,155.2410135,11.84,'11111222,11111222,11111222' 
TABS,ioos:station:wmo:42046:1,2012-04-03T08:00:00Z,27.8903,-94.0367,4.0,11.42546717,164.8814721,13.71,'11111222,11111222,11111222' 
TABS,ioos:station:wmo:42046:1,2012-04-03T08:30:00Z,27.8903,-94.0367,4.0,8.160747515,150.89112,9.73,'11111222,11111222,11111222' 
TABS,ioos:station:wmo:42046:1,2012-04-03T09:00:00Z,27.8903,-94.0367,4.0,5.078995964,136.5958821,6.2,'11111222,11111222,11111222' 
TABS,ioos:station:wmo:42046:1,2012-04-03T09:30:00Z,27.8903,-94.0367,4.0,4.952130854,142.7138791,6.68,'11111222,11111222,11111222' 
TABS,ioos:station:wmo:42046:1,2012-04-03T10:00:00Z,27.8903,-94.0367,4.0,5.386585189,139.8951145,6.46,'11111222,11111222,11111222' 
TABS,ioos:station:wmo:42046:1,2012-04-03T10:30:00Z,27.8903,-94.0367,4.0,5.006845314,131.8429355,5.69,'11111222,11111222,11111222' 
TABS,ioos:station:wmo:42046:1,2012-04-03T11:00:00Z,27.8903,-94.0367,4.0,5.147776219,130.7464892,6.19,'11111222,11111222,11111222' 
TABS,ioos:station:wmo:42046:1,2012-04-03T11:30:00Z,27.8903,-94.0367,4.0,6.380031348,130.9328056,7.28,'11111222,11111222,11111222' 
TABS,ioos:station:wmo:42046:1,2012-04-03T12:00:00Z,27.8903,-94.0367,4.0,5.727128425,131.0356702,6.43,'11111222,11111222,11111222' 
TABS,ioos:station:wmo:42046:1,2012-04-03T12:30:00Z,27.8903,-94.0367,4.0,5.85211073,127.222696,6.62,'11111222,11111222,11111222' 
TABS,ioos:station:wmo:42046:1,2012-04-03T13:00:00Z,27.8903,-94.0367,4.0,6.266234914,130.1454074,7.27,'11111222,11111222,11111222' 
TABS,ioos:station:wmo:42046:1,2012-04-03T13:30:00Z,27.8903,-94.0367,4.0,6.89809394,126.5712146,8.23,'11111222,11111222,11111222' 
TABS,ioos:station:wmo:42046:1,2012-04-03T14:00:00Z,27.8903,-94.0367,4.0,7.626303167,129.1998729,8.78,'11111222,11111222,11111222' 
TABS,ioos:station:wmo:42046:1,2012-04-03T14:30:00Z,27.8903,-94.0367,4.0,7.885917829,133.8186,9.28,'11111222,11111222,11111222' 
TABS,ioos:station:wmo:42046:1,2012-04-03T15:00:00Z,27.8903,-94.0367,4.0,8.003155628,137.177616,9.41,'11111222,11111222,11111222' 
TABS,ioos:station:wmo:42046:1,2012-04-03T15:30:00Z,27.8903,-94.0367,4.0,8.001512357,139.562113,9.19,'11111222,11111222,11111222' 
TABS,ioos:station:wmo:42046:1,2012-04-03T16:00:00Z,27.8903,-94.0367,4.0,7.990118898,141.8108529,9.19,'11111222,11111222,11111222' 
TABS,ioos:station:wmo:42046:1,2012-04-03T16:30:00Z,27.8903,-94.0367,4.0,8.143610993,139.5821608,9.57,'11111222,11111222,11111222' 
TABS,ioos:station:wmo:42046:1,2012-04-03T17:00:00Z,27.8903,-94.0367,4.0,8.61234579,130.9984985,9.7,'11111222,11111222,11111222' 
TABS,ioos:station:wmo:42046:1,2012-04-03T17:30:00Z,27.8903,-94.0367,4.0,9.26140918,138.7212653,11.25,'11111222,11111222,11111222' 
TABS,ioos:station:wmo:42046:1,2012-04-03T18:00:00Z,27.8903,-94.0367,4.0,9.25216191,139.1639186,11.0,'11111222,11111222,11111222' 
TABS,ioos:station:wmo:42046:1,2012-04-03T18:30:00Z,27.8903,-94.0367,4.0,8.918862035,142.3337852,9.83,'11111222,11111222,11111222' 
TABS,ioos:station:wmo:42046:1,2012-04-03T19:00:00Z,27.8903,-94.0367,4.0,7.935218964,141.4983625,9.12,'11111222,11111222,11111222' 
TABS,ioos:station:wmo:42046:1,2012-04-03T19:30:00Z,27.8903,-94.0367,4.0,7.38677873,149.5819293,8.76,'11111222,11111222,11111222' 
TABS,ioos:station:wmo:42046:1,2012-04-03T20:00:00Z,27.8903,-94.0367,4.0,6.780597319,151.1672722,7.83,'11111222,11111222,11111222' 
TABS,ioos:station:wmo:42046:1,2012-04-03T20:30:00Z,27.8903,-94.0367,4.0,6.065789314,146.7031898,7.04,'11111222,11111222,11111222' 
TABS,ioos:station:wmo:42046:1,2012-04-03T21:00:00Z,27.8903,-94.0367,4.0,6.210354257,147.0266998,7.18,'11111222,11111222,11111222' 
TABS,ioos:station:wmo:42046:1,2012-04-03T21:30:00Z,27.8903,-94.0367,4.0,5.958942859,144.1496501,6.84,'11111222,11111222,11111222' 
TABS,ioos:station:wmo:42046:1,2012-04-03T22:00:00Z,27.8903,-94.0367,4.0,6.175127529,144.2253234,7.39,'11111222,11111222,11111222' 
TABS,ioos:station:wmo:42046:1,2012-04-03T22:30:00Z,27.8903,-94.0367,4.0,5.924027346,143.3044906,6.73,'11111222,11111222,11111222' 
TABS,ioos:station:wmo:42046:1,2012-04-03T23:00:00Z,27.8903,-94.0367,4.0,5.950403348,139.4303427,6.67,'11111222,11111222,11111222' 
TABS,ioos:station:wmo:42046:1,2012-04-03T23:30:00Z,27.8903,-94.0367,4.0,6.201233748,138.8578401,7.16,'11111222,11111222,11111222' 
TABS,ioos:station:wmo:42046:1,2012-04-04T00:00:00Z,27.8903,-94.0367,4.0,6.176285291,144.6890796,7.4,'11111222,11111222,11111222' 
TABS,ioos:station:wmo:42046:1,2012-04-04T00:30:00Z,27.8903,-94.0367,4.0,6.607094672,152.1165295,7.78,'11111222,11111222,11111222' 
TABS,ioos:station:wmo:42046:1,2012-04-04T01:00:00Z,27.8903,-94.0367,4.0,7.285416941,155.5107523,8.43,'11111222,11111222,11111222' 
TABS,ioos:station:wmo:42046:1,2012-04-04T01:30:00Z,27.8903,-94.0367,4.0,7.149636354,156.7701063,8.46,'11111222,11111222,11111222' 
TABS,ioos:station:wmo:42046:1,2012-04-04T02:00:00Z,27.8903,-94.0367,4.0,9.401196732,179.0859958,12.18,'11111222,11111222,11111222' 
TABS,ioos:station:wmo:42046:1,2012-04-04T02:30:00Z,27.8903,-94.0367,4.0,7.943362009,151.3380081,9.3,'11111222,11111222,11111222' 
TABS,ioos:station:wmo:42046:1,2012-04-04T03:00:00Z,27.8903,-94.0367,4.0,7.683176426,153.235121,8.68,'11111222,11111222,11111222' 
TABS,ioos:station:wmo:42046:1,2012-04-04T03:30:00Z,27.8903,-94.0367,4.0,6.723049903,152.2536424,7.82,'11111222,11111222,11111222' 
TABS,ioos:station:wmo:42046:1,2012-04-04T04:00:00Z,27.8903,-94.0367,4.0,6.539548914,152.2988631,7.54,'11111222,11111222,11111222' 
TABS,ioos:station:wmo:42046:1,2012-04-04T04:30:00Z,27.8903,-94.0367,4.0,6.687189245,145.7874224,7.9,'11111222,11111222,11111222' 
TABS,ioos:station:wmo:42046:1,2012-04-04T05:00:00Z,27.8903,-94.0367,4.0,6.068838439,163.5361187,8.26,'11111222,11111222,11111222' 
TABS,ioos:station:wmo:42046:1,2012-04-04T05:30:00Z,27.8903,-94.0367,4.0,4.938552419,170.4425449,5.74,'11111222,11111222,11111222' 
TABS,ioos:station:wmo:42046:1,2012-04-04T06:00:00Z,27.8903,-94.0367,4.0,3.694766569,174.8759917,4.46,'11111222,11111222,11111222' 
TABS,ioos:station:wmo:42046:1,2012-04-04T06:30:00Z,27.8903,-94.0367,4.0,4.084421624,166.4062971,4.84,'11111222,11111222,11111222' 
TABS,ioos:station:wmo:42046:1,2012-04-04T07:00:00Z,27.8903,-94.0367,4.0,4.576210222,156.2920277,5.27,'11111222,11111222,11111222' 
TABS,ioos:station:wmo:42046:1,2012-04-04T07:30:00Z,27.8903,-94.0367,4.0,3.804339627,172.2961092,4.76,'11111222,11111222,11111222' 
TABS,ioos:station:wmo:42046:1,2012-04-04T08:00:00Z,27.8903,-94.0367,4.0,1.789972067,219.5597859,2.3,'11111222,11111222,11111222' 
TABS,ioos:station:wmo:42046:1,2012-04-04T08:30:00Z,27.8903,-94.0367,4.0,1.920937271,231.3402821,2.23,'11111222,11111222,11111222' 
TABS,ioos:station:wmo:42046:1,2012-04-04T09:00:00Z,27.8903,-94.0367,4.0,2.188264152,217.7602848,2.7,'11111222,11111222,11111222' 
TABS,ioos:station:wmo:42046:1,2012-04-04T09:30:00Z,27.8903,-94.0367,4.0,2.725472436,186.1082345,3.12,'11111222,11111222,11111222' 
TABS,ioos:station:wmo:42046:1,2012-04-04T10:00:00Z,27.8903,-94.0367,4.0,3.544305292,151.3382116,4.17,'11111222,11111222,11111222' 
TABS,ioos:station:wmo:42046:1,2012-04-04T10:30:00Z,27.8903,-94.0367,4.0,1.83806964,126.3714798,2.25,'11111222,11111222,11111222' 
TABS,ioos:station:wmo:42046:1,2012-04-04T11:00:00Z,27.8903,-94.0367,4.0,1.622498074,109.4404103,2.04,'11111222,11111222,11111222' 
TABS,ioos:station:wmo:42046:1,2012-04-04T11:30:00Z,27.8903,-94.0367,4.0,1.527383383,95.63634844,1.86,'11111222,11111222,11111222' 
TABS,ioos:station:wmo:42046:1,2012-04-04T12:00:00Z,27.8903,-94.0367,4.0,1.958621965,59.63792862,2.46,'11111222,11111222,11111222' 
TABS,ioos:station:wmo:42046:1,2012-04-04T12:30:00Z,27.8903,-94.0367,4.0,2.32432786,71.95443365,2.79,'11111222,11111222,11111222' 
TABS,ioos:station:wmo:42046:1,2012-04-04T13:00:00Z,27.8903,-94.0367,4.0,0.726911274,82.09243487,0.95,'11111222,11111222,11111222' 
TABS,ioos:station:wmo:42046:1,2012-04-04T13:30:00Z,27.8903,-94.0367,4.0,1.674425275,74.05422047,2.31,'11111222,11111222,11111222' 
TABS,ioos:station:wmo:42046:1,2012-04-04T14:00:00Z,27.8903,-94.0367,4.0,2.462722071,132.6965608,3.13,'11111222,11111222,11111222' 
TABS,ioos:station:wmo:42046:1,2012-04-04T14:30:00Z,27.8903,-94.0367,4.0,3.374151745,133.4391856,3.84,'11111222,11111222,11111222' 
TABS,ioos:station:wmo:42046:1,2012-04-04T15:00:00Z,27.8903,-94.0367,4.0,3.983290097,111.3476976,4.85,'11111222,11111222,11111222' 
TABS,ioos:station:wmo:42046:1,2012-04-04T15:30:00Z,27.8903,-94.0367,4.0,2.88783656,97.96215319,4.11,'11111222,11111222,11111222' 
TABS,ioos:station:wmo:42046:1,2012-04-04T16:00:00Z,27.8903,-94.0367,4.0,2.092582137,78.42118559,2.57,'11111222,11111222,11111222' 
TABS,ioos:station:wmo:42046:1,2012-04-04T16:30:00Z,27.8903,-94.0367,4.0,1.302689526,24.00688003,2.52,'11111222,11111222,11111222' 
TABS,ioos:station:wmo:42046:1,2012-04-04T17:00:00Z,27.8903,-94.0367,4.0,3.112073264,29.44773531,3.67,'11111222,11111222,11111222' 
TABS,ioos:station:wmo:42046:1,2012-04-04T17:30:00Z,27.8903,-94.0367,4.0,1.660120478,53.82004324,2.2,'11111222,11111222,11111222' 
TABS,ioos:station:wmo:42046:1,2012-04-04T18:00:00Z,27.8903,-94.0367,4.0,2.790788419,83.00190284,3.73,'11111222,11111222,11111222' 
TABS,ioos:station:wmo:42046:1,2012-04-04T18:30:00Z,27.8903,-94.0367,4.0,3.208613408,129.943079,3.62,'11111222,11111222,11111222' 